Chatham, MA

5:38 PM EDT on August 29, 2016 (GMT -0400)
Chatham Municipal

Weather History for KCQX - April, 2014

Change the Weather History Date:

Saturday, April 26, 2014

  Actual Average Record
Temperature  
Mean Temperature 44 °F -  
Max Temperature 46 °F 53 °F 64 °F (1997)
Min Temperature 39 °F 39 °F 32 °F (1992)
Degree Days  
Heating Degree Days 21    
Moisture  
Dew Point 37 °F    
Average Humidity 78    
Maximum Humidity 93    
Minimum Humidity 68    
Precipitation  
Precipitation 0.07 in - - ()
Sea Level Pressure  
Sea Level Pressure 29.83 in    
Wind  
Wind Speed 8 mph (East)    
Max Wind Speed 16 mph    
Max Gust Speed 22 mph    
Visibility 10 miles    
Events Rain    
Averages and records for this station are not official NWS values.
T = Trace of Precipitation, MM = Missing Value Source: NWS Daily Summary

Daily Weather History Graph

Daily Weather History Graph

Search for Another Location

Airport or City:

Trip Planner

Search our weather history database for the weather conditions in past years. The results will help you decide how hot, cold, wet, or windy it might be!

Date:

Astronomy

Apr. 26, 2014 Rise Set
Actual Time 5:43 AM EDT 7:32 PM EDT
Civil Twilight 5:13 AM EDT 8:02 PM EDT
Nautical Twilight 4:37 AM EDT 8:38 PM EDT
Astronomical Twilight 3:58 AM EDT 9:18 PM EDT
Moon 4:08 AM EDT (4/26) 4:55 PM EDT (4/26)
Length of Visible Light 14h 48m
Length of Day
13h 49m
Waning Crescent, 8% of the Moon is Illuminated
Apr 26
Waning Crescent
Apr 29
New
May 6
First Quarter
May 14
Full
May 21
Last Quarter

Hourly Weather History & Observations

Time (EDT) Temp. Windchill Dew Point Humidity Pressure Visibility Wind Dir Wind Speed Gust Speed Precip Events Conditions
12:52 AM 45.0 °F 42.6 °F 39.0 °F 80% 29.90 in 10.0 mi South 4.6 mph - N/A   Partly Cloudy
1:52 AM 43.0 °F 38.8 °F 37.9 °F 82% 29.88 in 10.0 mi SSE 6.9 mph - N/A   Clear
2:52 AM 44.1 °F 40.8 °F 36.0 °F 73% 29.85 in 10.0 mi SSE 5.8 mph - N/A   Scattered Clouds
3:52 AM 43.0 °F 39.5 °F 35.1 °F 74% 29.83 in 10.0 mi SE 5.8 mph - N/A   Clear
4:52 AM 43.0 °F 38.2 °F 36.0 °F 76% 29.82 in 10.0 mi SE 8.1 mph - N/A   Clear
5:52 AM 44.1 °F 39.5 °F 34.0 °F 68% 29.81 in 10.0 mi ESE 8.1 mph - N/A   Partly Cloudy
6:52 AM 44.1 °F 37.7 °F 35.1 °F 71% 29.82 in 10.0 mi ESE 12.7 mph 18.4 mph N/A   Overcast
7:52 AM 44.1 °F 39.0 °F 37.0 °F 76% 29.83 in 10.0 mi ESE 9.2 mph 19.6 mph N/A   Overcast
8:52 AM 44.1 °F 37.4 °F 37.9 °F 79% 29.81 in 10.0 mi East 13.8 mph - N/A   Mostly Cloudy
9:52 AM 45.0 °F 38.9 °F 37.0 °F 74% 29.81 in 10.0 mi East 12.7 mph 21.9 mph N/A   Overcast
10:52 AM 45.0 °F 39.3 °F 37.0 °F 74% 29.80 in 10.0 mi East 11.5 mph - N/A   Overcast
11:52 AM 43.0 °F 37.2 °F 39.0 °F 86% 29.81 in 5.0 mi ENE 10.4 mph - 0.02 in Rain Light Rain
12:52 PM 44.1 °F 38.1 °F 39.9 °F 85% 29.79 in 5.0 mi East 11.5 mph - 0.04 in Rain Light Rain
1:52 PM 45.0 °F 38.9 °F 39.9 °F 82% 29.78 in 10.0 mi East 12.7 mph 19.6 mph 0.01 in   Overcast
2:52 PM 46.0 °F 39.3 °F 37.9 °F 73% 29.76 in 10.0 mi ENE 16.1 mph - N/A   Partly Cloudy
3:52 PM 46.0 °F 40.2 °F 36.0 °F 68% 29.78 in 10.0 mi NE 12.7 mph - N/A   Clear
4:52 PM 46.0 °F 40.2 °F 36.0 °F 68% 29.78 in 10.0 mi NE 12.7 mph - N/A   Clear
5:52 PM 45.0 °F 39.7 °F 37.0 °F 74% 29.80 in 10.0 mi NE 10.4 mph - N/A   Overcast
6:52 PM 44.1 °F 40.8 °F 37.0 °F 76% 29.82 in 10.0 mi NE 5.8 mph - N/A   Overcast
7:52 PM 44.1 °F 40.8 °F 37.0 °F 76% 29.83 in 10.0 mi NE 5.8 mph - N/A   Mostly Cloudy
8:52 PM 43.0 °F 40.3 °F 37.0 °F 80% 29.87 in 10.0 mi Variable 4.6 mph - N/A   Mostly Cloudy
9:52 PM 43.0 °F 39.5 °F 39.0 °F 86% 29.87 in 10.0 mi NNE 5.8 mph - N/A   Mostly Cloudy
10:52 PM 42.1 °F 38.4 °F 39.0 °F 89% 29.87 in 10.0 mi ENE 5.8 mph - N/A   Clear
11:52 PM 39.0 °F 36.8 °F 37.0 °F 93% 29.89 in 10.0 mi NNW 3.5 mph - N/A   Clear